Location: Hoyos del Collado
(40.3594°N, 5.2003°W)
Time: 11:53:34
(UTC+00:00)

Sich 1 Rocket - Pass Details

Date: 18 April 2024
Orbit: 614 x 648 km, 82.5° (Epoch: 26 May)

Event Time Altitude Azimuth Distance (km) Brightness Sun altitude
Exits shadow 20:41:54 10° 187° (S) 1,959 5.9 -17.9°
Maximum altitude 20:46:14 88° 277° (W) 630 3.5 -18.6°
Drops below altitude 10° 20:50:42 10° 7° (N) 2,014 6.5 -19.3°
Sets 20:52:58 0° 8° (N) 2,931 7.4 -19.7°
